Location: De Har
(53.3413°N, 6.6858°E)
Time: 17:29:36
(UTC+00:00)

COSMOS 2406 - Pass Details

Date: 22 April 2026
Orbit: 844 x 860 km, 71.0° (Epoch: 9 May)

Event Time Altitude Azimuth Distance (km) Brightness Sun altitude
Exits shadow 00:32:29 26° 133° (SE) 1,615 4.4 -23.2°
Maximum altitude 00:34:01 30° 106° (ESE) 1,492 4.4 -23.2°
Drops below altitude 10° 00:38:57 10° 47° (NE) 2,507 6.5 -23.0°
Sets 00:41:40 0° 37° (NE) 3,447 7.6 -22.8°
